Regional Weather Roundup
Issued by NWS Goodland, KS

Home | Current Version | Previous Version | Graphics & Text | Print | Product List | Glossary On
Versions: 1 2 3 4 5 6 7 8 9 10 11 12 13 14 15 16 17 18 19 20 21 22 23 24 25 26 27 28 29 30 31 32 33 34 35 36 37 38 39 40 41 42 43 44 45 46 47 48 49 50
000
ASUS43 KGLD 221759
RWRGLD

GOODLAND FORECAST AREA HOURLY WEATHER ROUNDUP
NATIONAL WEATHER SERVICE GOODLAND KS
1200 PM MDT TUE JUL 22 2014

...OFFICIAL OBSERVATIONS...

CITY           SKY/WX    TMP DP  RH WIND       PRES   REMARKS
GOODLAND KS    SUNNY     90  59  35 E9        30.19R
HILL CITY KS   SUNNY     93  64  38 VRB7      30.09S
IMPERIAL NEB   SUNNY     88  59  37 VRB6      30.19F
MCCOOK NEB     SUNNY     90  63  40 NE14      30.15S
AKRON CO       SUNNY     88  54  31 E13       30.29S
BURLINGTON CO  SUNNY     91  59  33 E8        30.21F
LIMON CO       SUNNY     88  50  27 VRB7      30.33S
$$

...UNOFFICIAL OBSERVATIONS...

CITY           SKY/WX    TMP DP  RH WIND       PRES   REMARKS
COLBY KS       SUNNY     90  68  48 E7        30.17R
GOVE KS          N/A     89  32  13 MISG        N/A
NORTON KS      SUNNY     93  59  31 SE5       30.10R
SHARON SPRINGS   N/A     91  65  41 CALM        N/A
KIT CARSON CO    N/A     91  57  31 N10G23      N/A
YUMA CO          N/A     86  57  37 E10         N/A
$$


USA.gov is the U.S. government's official web portal to all federal, state and local government web resources and services.